TimeMST,TemperatureF,Dew PointF,Humidity,Sea Level PressureIn,VisibilityMPH,Wind Direction,Wind SpeedMPH,Gust SpeedMPH,PrecipitationIn,Events,Conditions,WindDirDegrees,DateUTC
12:54 AM,35.1,25.0,67,29.89,10.0,SE,5.8,-,N/A,,Clear,130,2012-12-08 07:54:00
1:54 AM,34.0,24.1,67,29.88,10.0,SSE,3.5,-,N/A,,Clear,150,2012-12-08 08:54:00
2:54 AM,32.0,23.0,69,29.89,10.0,SSE,4.6,-,N/A,,Clear,150,2012-12-08 09:54:00
3:54 AM,30.9,23.0,72,29.89,10.0,SSE,3.5,-,N/A,,Clear,150,2012-12-08 10:54:00
4:54 AM,30.9,23.0,72,29.90,10.0,South,4.6,-,N/A,,Clear,170,2012-12-08 11:54:00
5:54 AM,30.9,23.0,72,29.93,10.0,SE,6.9,-,N/A,,Clear,140,2012-12-08 12:54:00
6:54 AM,26.1,19.9,78,29.96,10.0,Calm,Calm,-,N/A,,Clear,0,2012-12-08 13:54:00
7:54 AM,27.0,19.0,72,29.98,10.0,Calm,Calm,-,N/A,,Clear,0,2012-12-08 14:54:00
8:54 AM,36.0,21.9,57,29.97,10.0,Calm,Calm,-,N/A,,Clear,0,2012-12-08 15:54:00
9:54 AM,42.1,24.1,49,29.96,10.0,Calm,Calm,-,N/A,,Clear,0,2012-12-08 16:54:00
10:54 AM,48.9,28.0,44,29.91,10.0,NNW,4.6,-,N/A,,Clear,330,2012-12-08 17:54:00
11:54 AM,55.9,26.1,32,29.85,10.0,West,12.7,19.6,N/A,,Clear,280,2012-12-08 18:54:00
12:54 PM,57.9,21.9,25,29.82,10.0,West,15.0,21.9,N/A,,Clear,260,2012-12-08 19:54:00
1:54 PM,59.0,17.1,20,29.80,10.0,West,12.7,19.6,N/A,,Clear,280,2012-12-08 20:54:00
2:54 PM,57.9,16.0,19,29.80,10.0,WNW,11.5,21.9,N/A,,Clear,290,2012-12-08 21:54:00
3:54 PM,57.0,14.0,18,29.81,10.0,NNW,9.2,-,N/A,,Clear,330,2012-12-08 22:54:00
4:54 PM,53.1,12.0,20,29.83,10.0,NNW,3.5,-,N/A,,Clear,330,2012-12-08 23:54:00
5:54 PM,46.0,10.9,24,29.88,10.0,SW,4.6,-,N/A,,Clear,230,2012-12-09 00:54:00
6:54 PM,44.6,24.8,46,29.95,10.0,West,5.8,-,N/A,,Clear,260,2012-12-09 01:54:00
7:54 PM,43.0,25.0,49,29.93,10.0,SW,9.2,-,N/A,,Clear,220,2012-12-09 02:54:00
8:54 PM,42.1,24.1,49,29.91,10.0,WSW,8.1,-,N/A,,Clear,240,2012-12-09 03:54:00
9:54 PM,42.1,25.0,51,29.89,10.0,SW,12.7,-,N/A,,Clear,230,2012-12-09 04:54:00
10:54 PM,42.1,26.1,53,29.86,10.0,SW,11.5,-,N/A,,Clear,220,2012-12-09 05:54:00
11:54 PM,39.0,25.0,57,29.84,10.0,South,3.5,-,N/A,,Clear,170,2012-12-09 06:54:00